User: anonymous   Login
Location: Unspecified
(0.0000°N, 0.0000°E)
Time: 02:15:51
(UTC+02:00)
Language:

Cosmos 1782 Rocket - Orbit

View from above orbital plane
View from above orbital plane
View from above satellite
View from above satellite

Ground track
Ground track

The orbit data is extracted from the following two-line orbital elements,

1 16987U 86074B   15213.57347235  .00000199  00000-0  21590-4 0  9994
2 16987 082.5142 232.4300 0018333 004.1153 114.1942 14.82778762556865
Epoch (UTC): 01 August 2015 13:45:48
Eccentricity: 0.0018333
inclination: 82.5142°
perigee height: 608 km
apogee height: 633 km
right ascension of ascending node: 232.4300°
argument of perigee: 4.1153°
revolutions per day: 14.82778762
mean anomaly at epoch: 114.1942°
orbit number at epoch: 55686

The dashed part of the orbit path shows where the satellite is in the earth's shadow,  

DLR